Theta_e
349 349 347 345 342 339 334 330 330 331 332 335 340 344 346 346 340 338 332 335 342 344 345 343 332 329 334 333 327 325 325 326 328 339 346 346 346 345 344 343 340 340 340
348 347 346 345 342 339 333 331 331 330 330 332 335 338 340 340 337 331 333 339 340 340 340 338 326 325 327 326 324 325 325 327 334 342 343 342 343 344 344 342 335 338 340
349 346 346 344 342 339 333 331 332 330 329 331 331 333 336 335 331 331 338 339 340 339 338 335 325 327 326 325 325 325 326 327 328 330 335 338 340 343 337 332 332 332 333
347 346 346 344 343 339 332 332 332 330 330 330 330 332 333 330 329 334 338 340 337 334 333 333 325 328 328 328 327 327 331 337 339 339 333 332 337 335 329 328 329 330 331
346 346 347 345 343 340 332 332 332 331 331 330 329 333 332 330 330 335 338 339 338 336 330 330 326 327 327 329 330 337 340 341 341 343 345 341 333 329 328 327 333 334 329
347 348 347 346 344 340 333 333 333 331 332 331 330 333 333 331 330 334 337 338 338 337 334 326 326 327 330 332 334 337 336 339 340 341 341 342 343 331 329 333 332 332 330
349 348 347 346 344 339 333 334 334 332 332 332 331 333 333 331 332 333 336 337 340 339 335 324 326 329 332 333 333 335 338 338 338 340 340 342 342 334 330 333 332 330 329
347 349 347 346 343 338 335 334 336 333 332 333 332 332 334 334 339 337 340 341 339 338 335 327 326 327 330 332 334 336 337 336 337 337 340 341 340 336 331 333 330 330 330
347 349 349 347 343 340 338 335 336 336 332 333 334 333 334 335 339 342 343 343 342 339 331 328 327 327 329 335 337 337 335 336 336 336 336 338 340 339 336 333 331 330 330
352 351 350 347 344 344 344 340 337 339 334 333 335 335 335 335 336 339 343 343 342 337 329 328 327 326 328 331 335 335 334 334 335 335 335 334 338 342 340 336 333 332 332
353 352 349 347 347 346 345 345 341 341 339 334 335 337 336 335 336 337 338 338 339 337 331 330 330 330 329 332 335 336 335 333 334 334 333 331 332 338 343 341 334 332 331
353 354 353 354 348 347 348 347 345 344 342 336 334 337 338 337 336 335 336 336 336 333 330 327 329 329 329 329 331 334 335 335 334 331 327 327 329 329 335 341 337 330 328
352 352 353 351 349 349 350 346 346 345 344 340 336 337 340 340 338 337 336 336 336 333 329 329 325 325 326 327 327 327 327 327 327 326 329 335 336 335 333 336 339 330 326
354 353 349 348 348 345 344 346 347 346 345 342 339 339 341 342 340 337 337 336 335 334 333 332 332 331 329 327 327 327 327 327 326 324 326 333 333 337 335 335 336 330 324
352 352 349 348 346 342 340 337 341 343 345 344 342 341 342 342 341 338 338 343 342 341 341 340 339 339 339 336 334 335 336 337 336 333 330 330 332 335 336 336 336 330 325
351 353 349 348 345 339 338 336 336 349 347 346 344 343 343 342 341 337 339 343 344 344 343 343 342 342 342 340 339 339 338 338 338 336 336 337 336 335 333 332 333 327 328
353 352 348 345 342 340 337 345 348 347 344 342 344 344 341 337 343 337 341 343 346 346 344 345 344 344 343 341 340 339 338 339 338 337 335 335 335 336 337 334 329 327 328
349 347 347 347 342 340 341 343 347 346 345 345 343 342 342 343 344 342 342 344 345 345 346 344 343 341 340 340 339 336 335 334 334 335 334 335 335 335 334 333 333 335 334
350 346 345 346 342 341 345 346 346 346 347 345 345 344 344 344 345 345 346 345 346 345 345 344 341 338 338 337 335 333 333 333 331 328 327 329 333 333 335 333 331 330 334
346 346 343 343 343 344 344 342 344 348 349 346 345 345 345 345 345 345 345 346 345 339 339 339 338 337 334 333 333 334 334 332 330 328 327 330 331 331 332 331 330 330 330
343 343 343 342 342 341 340 345 348 347 345 344 343 343 341 343 345 344 345 343 341 338 338 336 331 331 332 334 334 334 330 327 325 325 325 328 328 326 325 329 330 331 333
340 341 339 340 339 339 338 344 347 346 344 344 345 344 345 344 343 342 343 340 337 335 333 331 331 332 333 332 328 325 322 324 325 325 326 327 327 326 326 329 330 330 332
338 340 340 338 340 336 336 345 345 345 343 342 343 344 344 345 344 343 341 340 338 336 334 333 332 332 332 329 324 324 320 321 321 325 326 327 327 326 327 329 329 330 330
338 339 339 338 342 342 342 343 345 345 339 332 336 337 336 337 338 338 339 340 340 339 338 336 335 334 328 323 323 322 324 325 323 324 327 328 328 328 329 329 329 328 331
336 340 342 343 343 344 346 346 344 337 329 328 328 330 330 330 330 330 332 335 335 333 332 330 330 329 329 330 328 325 324 326 327 327 329 329 330 330 330 329 330 330 329
332 336 338 339 338 340 340 338 337 330 325 325 324 325 323 322 321 321 321 321 321 320 320 319 318 318 319 320 320 322 325 327 328 328 328 327 327 328 330 330 330 330 329
Wind_Speed
21 25 27 26 25 24 23 23 22 20 20 21 23 25 26 25 24 23 24 24 21 17 15 13 12 12 12 12 13 13 13 14 14 14 13 12 11 11 11 12 13 14 14
32 31 30 29 26 24 23 23 22 21 20 21 22 22 23 24 24 24 24 22 19 16 14 11 11 11 12 13 13 14 15 14 13 13 12 10 7 8 9 10 11 12 12
36 36 33 31 28 25 24 23 22 21 20 20 21 21 22 22 23 23 22 19 16 14 14 12 11 12 13 13 14 14 15 15 14 12 10 10 9 11 9 10 10 11 10
39 36 36 32 29 26 24 24 22 21 20 19 19 20 20 21 22 21 19 16 13 13 12 12 11 11 12 12 13 14 14 13 11 9 7 6 6 7 7 8 8 8 8
37 35 34 34 31 27 25 23 22 21 20 19 18 19 19 19 20 19 16 14 12 10 9 10 11 12 12 11 12 13 12 9 6 4 2 1 2 4 6 7 7 6 6
36 34 33 30 29 27 25 23 22 21 20 18 17 18 18 18 18 17 15 12 10 8 8 8 9 11 10 10 11 10 8 6 3 2 3 6 6 5 5 5 5 5 5
36 34 31 28 26 25 24 22 20 20 18 17 16 16 16 16 15 15 13 12 9 8 7 8 9 9 9 8 9 7 5 3 2 4 7 4 6 6 7 7 6 5 6
35 32 31 27 24 23 23 22 20 19 18 17 16 16 16 15 13 12 11 9 8 6 6 7 8 8 8 6 6 6 4 2 1 4 7 3 6 7 9 9 8 7 6
34 32 30 27 24 22 21 20 19 18 18 16 15 14 14 14 13 12 10 7 5 4 5 6 7 7 7 6 6 5 5 4 4 4 5 6 9 11 11 11 11 9 9
29 30 29 26 25 23 21 19 18 17 17 16 14 13 12 12 12 11 10 8 6 5 5 6 7 8 8 7 7 7 7 8 8 8 7 7 7 15 16 14 15 13 12
24 28 30 29 26 22 20 19 18 16 16 15 14 12 12 12 12 11 10 9 7 6 6 7 7 7 8 8 8 9 10 10 11 12 13 12 12 12 18 19 17 17 16
18 21 25 23 24 22 18 18 18 18 18 17 16 15 14 13 12 11 11 10 9 8 8 8 8 8 10 10 11 11 13 14 15 17 18 18 17 18 17 23 23 20 19
22 20 24 26 24 21 18 19 20 20 21 20 19 18 16 14 13 12 12 12 12 10 10 9 9 10 10 11 12 13 15 17 20 22 21 21 23 23 22 22 26 24 22
30 31 29 27 26 21 18 17 19 21 22 22 22 20 18 17 15 14 12 13 14 14 12 11 11 11 12 13 13 14 16 18 21 25 27 26 26 23 24 23 26 27 23
27 32 33 31 28 25 23 23 25 24 26 24 21 21 19 18 17 15 14 11 12 12 12 12 12 12 13 13 13 12 12 13 15 19 22 25 26 23 22 23 27 28 26
29 36 35 36 34 29 31 28 30 26 28 23 22 23 21 18 16 14 15 14 14 14 15 14 13 13 12 10 10 11 11 10 12 13 12 17 20 23 21 22 22 26 27
38 40 41 38 36 33 33 29 28 27 21 22 24 20 17 16 18 17 16 11 13 15 14 13 13 13 10 7 8 8 9 11 13 13 16 15 21 21 19 21 27 30 31
34 40 40 39 39 34 34 29 24 19 18 19 17 15 16 20 18 14 12 9 7 12 13 10 11 11 9 9 11 12 13 16 18 20 25 26 30 32 33 32 30 30 29
42 44 44 42 34 33 28 21 19 18 16 16 16 17 16 20 19 14 11 12 12 12 10 11 12 11 13 14 16 19 24 21 22 24 28 28 36 40 44 38 37 40 39
36 38 32 32 24 28 25 15 16 13 12 15 16 18 19 16 18 15 15 13 11 10 11 11 11 12 13 16 16 18 20 24 28 29 28 27 30 32 35 37 38 39 43
25 32 32 31 26 24 21 19 18 16 14 8 11 12 8 10 12 14 11 8 10 9 10 9 8 9 11 11 13 15 22 22 22 25 28 26 27 27 31 30 32 33 34
29 31 30 28 24 22 22 25 13 10 7 10 9 11 10 9 7 6 6 5 6 7 7 9 8 7 9 10 4 3 4 8 10 14 19 23 27 26 34 26 21 26 34
24 31 29 23 21 23 25 19 12 12 17 15 14 12 8 5 4 4 4 5 5 5 6 8 10 11 12 9 9 7 2 4 5 7 14 20 27 30 28 27 23 25 23
21 21 22 28 23 24 22 20 20 11 13 11 16 16 12 8 6 4 2 3 2 1 3 7 10 11 11 11 11 9 15 9 3 5 7 17 24 29 33 33 31 27 26
21 21 21 21 21 21 21 19 17 21 25 24 23 20 17 13 10 10 9 8 6 3 2 3 3 5 8 12 11 8 7 12 18 8 11 13 21 27 28 26 26 26 23
26 26 22 21 18 15 16 21 26 28 28 25 21 20 16 13 11 9 7 5 3 2 4 7 8 8 8 10 12 12 11 8 7 7 6 12 13 19 24 28 28 26 26
Wind_Direction
191 178 169 166 160 154 147 141 139 136 134 134 137 138 141 145 144 143 143 142 141 143 142 137 134 133 133 131 122 119 122 119 119 120 120 120 118 123 124 128 125 120 121
172 174 170 166 161 157 151 145 143 139 138 139 139 141 144 146 147 146 145 143 141 142 142 140 136 132 131 126 123 122 121 115 115 117 117 108 108 139 127 131 127 125 124
169 170 170 167 163 161 155 150 148 144 143 143 142 142 144 145 146 146 145 145 144 144 145 146 141 135 133 130 127 126 122 118 115 118 125 129 120 139 139 138 135 134 131
169 169 169 168 166 164 160 155 151 147 145 145 144 145 146 147 148 148 148 147 144 143 147 148 144 138 135 134 131 128 125 121 114 103 103 121 130 148 144 135 132 134 134
171 171 171 169 168 166 163 158 154 152 149 149 149 150 149 149 151 151 152 151 148 143 145 150 148 145 144 142 139 135 130 123 106 71 4 266 179 172 159 153 146 146 139
171 172 172 172 168 166 164 162 159 157 155 152 152 154 153 153 154 156 158 159 156 153 153 159 156 152 150 147 145 138 135 121 92 24 302 259 234 225 189 178 168 155 154
170 170 172 174 170 165 165 165 164 163 159 154 154 157 157 157 158 160 159 160 158 160 166 167 166 162 159 160 160 156 151 130 47 11 344 294 229 223 213 210 206 196 189
170 171 171 173 171 168 169 170 170 169 167 163 160 162 163 161 161 162 162 163 165 173 182 179 178 176 173 178 185 186 188 209 306 358 0 273 223 233 237 232 231 231 224
170 171 171 170 171 171 174 174 175 174 173 171 166 165 166 168 168 170 171 172 177 192 199 196 195 192 192 201 218 227 239 263 289 319 337 342 245 254 254 246 253 250 248
166 168 168 169 173 175 175 178 180 179 178 176 172 167 170 175 182 184 188 188 192 207 211 206 207 209 212 219 229 238 253 268 283 293 295 301 300 252 254 257 254 257 257
164 170 172 174 177 178 178 179 182 183 182 179 178 175 177 182 189 196 203 209 209 213 218 220 222 228 235 246 249 253 261 268 280 288 290 294 291 281 255 259 258 259 263
156 167 170 171 174 175 176 180 182 185 186 188 188 189 189 191 193 199 207 214 217 220 222 224 228 232 239 248 255 263 271 280 284 286 290 295 293 281 271 260 259 257 257
161 170 174 171 172 170 174 183 186 191 192 194 195 198 196 195 197 201 206 212 218 222 227 230 230 240 252 262 271 278 286 291 296 298 296 299 306 289 274 268 257 261 265
171 181 180 176 172 175 179 190 194 198 202 202 203 201 201 200 203 208 211 212 221 224 229 236 245 251 259 265 272 283 295 301 302 301 302 299 306 305 283 282 260 261 267
172 179 179 179 176 175 178 180 193 204 209 210 209 211 213 215 208 207 212 212 224 226 234 244 257 272 279 281 283 282 285 295 305 313 304 300 299 296 291 289 272 269 273
177 182 183 180 178 190 214 200 201 213 200 206 218 219 212 225 222 215 210 220 237 246 249 255 259 258 260 261 263 271 266 263 272 269 288 317 313 302 293 284 266 260 273
186 186 186 189 190 191 197 204 206 215 204 206 221 225 222 219 229 216 214 228 251 239 256 253 247 245 243 244 239 239 268 271 278 287 291 289 301 299 300 287 271 268 272
180 189 189 188 189 192 201 204 204 203 217 217 218 219 221 224 223 221 224 237 242 224 225 228 210 201 213 225 250 271 275 287 279 284 288 288 286 287 289 283 283 277 272
191 190 193 191 201 208 201 193 192 206 220 223 218 218 228 230 231 227 227 227 220 224 235 233 228 239 250 256 260 274 284 285 284 287 284 279 270 271 268 283 278 276 273
192 192 197 201 205 208 204 207 195 205 213 226 221 222 231 229 226 230 233 243 246 256 242 243 245 246 262 272 269 270 278 279 283 284 281 273 273 279 273 277 276 274 275
192 194 205 202 205 209 204 199 208 207 205 192 216 212 199 185 197 220 238 245 238 237 243 247 225 253 266 266 286 290 287 290 282 280 273 268 277 281 284 285 287 292 280
192 196 203 205 215 219 211 201 211 208 197 190 173 155 162 169 182 219 232 232 229 228 224 224 264 278 281 281 272 313 309 317 291 292 286 270 269 273 280 284 288 294 294
188 199 202 206 217 212 199 204 204 152 127 126 131 131 135 160 189 225 240 250 239 253 264 269 270 269 282 292 276 249 304 263 321 297 303 286 280 282 282 282 276 285 291
190 195 192 196 202 210 198 198 195 178 135 128 126 123 120 111 101 97 155 178 177 224 272 273 263 277 283 289 308 261 256 269 284 317 297 300 296 289 294 292 285 278 280
134 150 158 170 176 183 183 186 174 134 127 125 123 121 116 114 109 101 95 97 102 100 12 342 305 298 288 294 293 287 269 264 265 253 287 290 295 297 300 302 294 286 282
127 133 136 132 132 150 154 151 148 138 135 128 123 119 118 120 114 99 90 81 65 355 320 311 309 306 308 302 306 308 296 290 313 305 291 299 301 302 299 296 292 293 295